This is the latest recevied weather packets stored in our database for station/object KD4VIF. If no packets are shown the sender has not sent any weather packets the latest 10 day(s).
| Time | Temp. | Humidity | Pressure | Rain* | Wind** | Luminosity | Snow |
|---|---|---|---|---|---|---|---|
| 1778092302 | 23.89° C | 100% | 1013.4 hPa | 0 mm | 1.34 m/s, 316° | - | - |
| 1778092001 | 23.89° C | 100% | 1013.2 hPa | 0 mm | 0.45 m/s, 271° | - | - |
| 1778090802 | 23.89° C | 100% | 1013.2 hPa | 0 mm | 0.45 m/s, 309° | - | - |
| 1778090501 | 23.33° C | 100% | 1013.4 hPa | 0 mm | 0 m/s | - | - |
| 1778090202 | 23.33° C | 100% | 1013.7 hPa | 0 mm | 0.89 m/s, 331° | - | - |
| 1778089901 | 23.33° C | 100% | 1013.9 hPa | 0 mm | 0.89 m/s, 108° | - | - |
| 1778089602 | 23.33° C | 100% | 1014.1 hPa | 0 mm | 1.79 m/s, 315° | - | - |
| 1778089301 | 23.33° C | 100% | 1014.2 hPa | 0 mm | 1.34 m/s, 298° | - | - |
| 1778089002 | 23.33° C | 100% | 1014 hPa | 0 mm | 0.89 m/s, 240° | - | - |
| 1778088701 | 23.33° C | 100% | 1013.9 hPa | 0 mm | 1.79 m/s, 267° | - | - |
| 1778088401 | 23.33° C | 100% | 1014 hPa | 0 mm | 0.45 m/s, 306° | - | - |
| 1778088102 | 22.78° C | 100% | 1014.1 hPa | 0 mm | 0.45 m/s, 254° | - | - |
| 1778087802 | 22.78° C | 100% | 1014.1 hPa | 0 mm | 0.89 m/s, 334° | - | - |
| 1778086601 | 22.78° C | 100% | 1014.2 hPa | 0 mm | 0.45 m/s, 329° | - | - |
| 1778086302 | 22.78° C | 100% | 1014.3 hPa | 0 mm | 1.34 m/s, 310° | - | - |
| 1778085402 | 22.22° C | 100% | 1014.4 hPa | 0 mm | 0 m/s | - | - |
| 1778083905 | 22.22° C | 100% | 1014.6 hPa | 0 mm | 0.45 m/s, 264° | - | - |
| 1778083001 | 22.22° C | 100% | 1014.2 hPa | 0 mm | 0.89 m/s, 188° | - | - |
| 1778082702 | 22.22° C | 100% | 1014.5 hPa | 0 mm | 1.79 m/s, 305° | - | - |
| 1778082401 | 22.22° C | 100% | 1014.3 hPa | 0 mm | 0.45 m/s, 338° | - | - |
| 1778081501 | 22.22° C | 100% | 1014.2 hPa | 0 mm | 0.45 m/s, 90° | - | - |
| 1778081201 | 22.22° C | 100% | 1014.3 hPa | 0 mm | 0.45 m/s, 232° | - | - |
| 1778080602 | 21.67° C | 100% | 1014.2 hPa | 0 mm | 0 m/s | - | - |
| 1778080304 | 21.67° C | 100% | 1014.1 hPa | 0 mm | 0 m/s | - | - |
| 1778080002 | 21.11° C | 100% | 1014.2 hPa | 0 mm | 0 m/s | - | - |
* Rain latest hour (hover to see other rain measurements)
** Current wind speed in m/s (hover to see current wind gust speed)